Location: Bodest
(46.3000°N, 22.5667°E)
Time: 12:27:13
(UTC+00:00)

Cosmos 1844 Rocket - Pass Details

Date: 30 May 2022
Orbit: 826 x 843 km, 71.0° (Epoch: 28 June)

Event Time Altitude Azimuth Distance (km) Brightness Sun altitude
Rises 19:26:36 0° 337° (NNW) 3,383 7.4 -10.5°
Reaches altitude 10° 19:29:14 10° 346° (NNW) 2,444 6.2 -10.8°
Maximum altitude 19:34:26 38° 54° (NE) 1,251 3.6 -11.4°
Enters shadow 19:38:49 14° 118° (ESE) 2,171 4.3 -11.9°
